This demonstration page uses our WeatherBlox Daily Observations layout. Learn more.

Left ArrowRight Arrow

Hourly Observations for May 15, 2015

Temp ( °F °C ) Dew Point ( °F °C ) Humidity (%) Winds ( mph kmh ) Pressure ( in mb ) Visibility ( mi km ) Precip ( " mm )
12:53 am 00:53 Clear 58 14.4 46 7.8 65 65 S 15 24 29.78 1009 10 16 0.00 0.00
1:53 am 01:53 Clear 56 13.3 46 7.8 70 70 undefined N/A 29.80 1009 10 16 0.00 0.00
2:53 am 02:53 Clear 54 12.2 46 7.8 75 75 Calm 29.80 1009 10 16 0.00 0.00
3:53 am 03:53 Clear 53 11.7 46 7.8 77 77 Calm 29.80 1009 10 16 0.00 0.00
4:53 am 04:53 Clear 51 10.6 44 6.7 77 77 NNE 3 6 29.82 1010 10 16 0.00 0.00
5:53 am 05:53 Partly Cloudy 50 10 45 7.2 83 83 NNE 3 6 29.83 1010 10 16 0.00 0.00
6:08 am 06:08 Mostly Cloudy 52 11 45 7 77 77 N 5 7 29.85 1011 10 16 0.00 0.00
6:53 am 06:53 Cloudy 54 12.2 47 8.3 77 77 N 3 6 29.84 1011 10 16 0.00 0.00
7:53 am 07:53 Cloudy 56 13.3 48 8.9 75 75 SW 3 6 29.85 1011 10 16 0.00 0.00
8:53 am 08:53 Mostly Cloudy 59 15 47 8.3 64 64 VRB 6 9 29.85 1011 10 16 0.00 0.00
9:53 am 09:53 Mostly Cloudy 61 16.1 47 8.3 60 60 Calm 29.85 1011 10 16 0.00 0.00
10:04 am 10:04 Cloudy 61 16 46 8 59 59 SE 7 11 29.85 1011 10 16 0.00 0.00
10:20 am 10:20 Mostly Cloudy 63 17 46 8 56 56 S 5 7 29.85 1011 10 16 0.00 0.00
10:53 am 10:53 Mostly Cloudy 62 16.7 46 7.8 56 56 WSW 5 7 29.85 1011 10 16 0.00 0.00
11:53 am 11:53 Sunny 68 20 45 7.2 44 44 SSW 8 13 29.84 1010 10 16 0.00 0.00
12:53 pm 12:53 Mostly Cloudy 68 20 44 6.7 42 42 S 6 9 29.83 1010 10 16 0.00 0.00
1:53 pm 13:53 Cloudy 70 21.1 44 6.7 39 39 SSE 6 9 29.83 1010 10 16 0.00 0.00
2:53 pm 14:53 Mostly Cloudy 73 22.8 44 6.7 35 35 SSE 7 11 29.80 1009 10 16 0.00 0.00
3:53 pm 15:53 Partly Cloudy 73 22.8 44 6.7 35 35 ESE 7 11 29.80 1009 10 16 0.00 0.00
4:53 pm 16:53 Mostly Cloudy 73 22.8 44 6.7 35 35 Calm 29.80 1009 10 16 0.00 0.00
5:53 pm 17:53 Mostly Cloudy 72 22.2 44 6.7 37 37 Calm 29.80 1009 10 16 0.00 0.00
6:53 pm 18:53 Sunny 70 21.1 49 9.4 47 47 W 8 13 29.81 1010 10 16 0.00 0.00
7:53 pm 19:53 Mostly Cloudy 68 20 49 9.4 51 51 W 8 13 29.81 1010 10 16 0.00 0.00
8:53 pm 20:53 Mostly Clear 65 18.3 50 10 59 59 WNW 5 7 29.83 1010 10 16 0.00 0.00
9:53 pm 21:53 Mostly Cloudy 65 18.3 50 10 59 59 Calm 29.84 1011 10 16 0.00 0.00
10:53 pm 22:53 Partly Cloudy 62 16.7 50 10 65 65 Calm 29.85 1011 10 16 0.00 0.00
11:53 pm 23:53 Clear 60 15.6 51 10.6 72 72 NNW 3 6 29.85 1011 10 16 0.00 0.00

Powered by AerisWeather